Tracking 29932 objects as of 4-Dec-2024
HD Live streaming from Space Station
objects crossing your sky now

STARLINK-30591

Track STARLINK-30591 now!
10-day predictions
STARLINK-30591 is classified as:


NORAD ID: 58088
Int'l Code: 2023-160P
Perigee: 565.4 km
Apogee: 567.0 km
Inclination: 43.0 °
Period: 95.8 minutes
Semi major axis: 6937 km
RCS: Unknown
Launch date: October 18, 2023
Source: United States (US)
Launch site: AIR FORCE EASTERN TEST RANGE (AFETR)
Your satellite tracking list
Your tracking list is empty




NASA's NSSDC Master Catalog

Two Line Element Set (TLE):
1 58088U 23160P   24338.55785687  .00001370  00000-0  11651-3 0  9990
2 58088  43.0049  65.7526 0001152 262.2028  97.8683 15.02533872 63571
Source of the keplerian elements: AFSPC